Flag for Botswana Weather past 2 weeks in Francistown, Botswana

Now
68 °F

Clear.


Feels Like: 68 °F
Forecast: 49 / 77 °F
Wind: 20 mph from Southeast

Location: Francistown Airport

Current Time: May 23, 2015 at 6:51:48 PM

Latest Report: May 23, 2015 at 6:00 PM


Visibility: 10 mi

Pressure: 30.24 "Hg

Humidity: 53%

Dew point: 50 °F

Location of FrancistownLocation

Historic Weather in Francistown — Graph

°F

Francistown temperature yesterday

Maximum temperature yesterday: 81 °F (at 1:00 PM)
Minimum temperature yesterday: 41 °F (at 4:00 AM)
Average temperature yesterday: 62 °F

Past Weeks' High & Low Weather Summary

 TemperatureHumidityPressure
High90 °F (May 14, 3:00 PM)100% (May 23, 5:00 AM)30.36 "Hg (May 23, 5:00 AM)
Low41 °F (May 19, 7:00 AM)9% (May 16, 3:00 PM)30.01 "Hg (May 9, 11:00 AM)
Average68 °F44%30.22 "Hg
* Reported May 8 6:00 PM — May 23 6:00 PM, Francistown, Weather by CustomWeather, © 2015

Note: Actual official high and low records may vary slightly from our data, if they occured in-between our weather recording intervals... More about our weather records

Advertising

Francistown weather history for previous 24 hours

 ConditionsComfort  
Time TempWeatherWind HumidityBarometerVisibility
6:00 PM
Sat, May 23
68 °FClear.20 mph53%30.24 "Hg10 mi
5:00 PM73 °FClear.18 mph47%30.21 "Hg10 mi
4:00 PM77 °FSunny.14 mph34%30.21 "Hg10 mi
3:00 PM77 °FPassing clouds.17 mph36%30.21 "HgN/A
2:00 PM77 °FPassing clouds.16 mph39%30.24 "HgN/A
1:00 PM75 °FPassing clouds.12 mph39%30.27 "HgN/A
12:00 PM73 °FPassing clouds.12 mph44%30.30 "HgN/A
11:00 AM72 °FPassing clouds.14 mph47%30.33 "HgN/A
10:00 AM70 °FPassing clouds.15 mph50%30.36 "HgN/A
9:00 AM68 °FPassing clouds.12 mph53%30.36 "HgN/A
8:00 AM57 °FSunny.3 mph77%30.36 "Hg10 mi
7:00 AM48 °FSunny.5 mph94%30.33 "Hg10 mi
6:00 AM46 °FSunny.3 mph93%30.33 "Hg10 mi
5:00 AM48 °FClear.2 mph100%30.30 "Hg10 mi
4:00 AM50 °FClear.3 mph94%30.30 "Hg10 mi
3:00 AM54 °FClear.6 mph82%30.33 "Hg10 mi
2:00 AM55 °FClear.8 mph82%30.33 "Hg10 mi
1:00 AM55 °FClear.6 mph77%30.33 "Hg10 mi
11:00 PM
Fri, May 22
63 °FClear.10 mph59%30.36 "Hg10 mi
10:00 PM63 °FClear.8 mph59%30.36 "Hg10 mi
9:00 PM66 °FClear.18 mph46%30.36 "Hg10 mi
8:00 PM66 °FClear.15 mph43%30.33 "Hg10 mi
7:00 PM68 °FClear.14 mph40%30.30 "Hg10 mi
6:00 PM72 °FClear.14 mph36%30.27 "Hg10 mi
Weather by CustomWeather, © 2015

See weather overviewHow to use our weather pages